EW6950 Weather Reports


time (UTC)temp
C
wind
direction
speed
KPH
gust
KPH
rain 1hr
cm
rain 24hr
cm
rain mn
cm
humidity
%
barometer
mb
20181217124304 5 256 1.6 6.4 0.00 0.71 0.33 98 1020.3
20181217123301 5 236 4.8 16.1 0.00 0.71 0.33 98 1020.3
20181217122300 5 221 4.8 9.7 0.00 0.71 0.33 98 1020.1
20181217121303 5 216 1.6 14.5 0.00 0.71 0.33 98 1020.0
20181217120259 5 190 0.0 8.0 0.00 0.71 0.33 98 1019.8
20181217115256 5 223 0.0 6.4 0.00 0.71 0.33 98 1019.7
20181217114256 5 222 3.2 12.9 0.00 0.71 0.33 98 1019.7
20181217113256 5 207 6.4 16.1 0.00 0.71 0.33 98 1019.7
20181217112256 5 202 4.8 22.5 0.00 0.71 0.33 98 1019.6
20181217111256 5 227 4.8 14.5 0.00 0.71 0.33 98 1019.6
20181217110256 5 202 6.4 14.5 0.00 0.71 0.33 98 1019.6
20181217105256 5 204 4.8 12.9 0.00 0.71 0.33 98 1019.5
20181217104256 5 215 4.8 9.7 0.00 0.71 0.33 98 1019.5
20181217103256 5 223 3.2 11.3 0.00 0.71 0.33 98 1019.4
20181217102256 5 229 4.8 11.3 0.00 0.71 0.33 98 1019.4
20181217101255 5 232 3.2 12.9 0.00 0.71 0.33 98 1019.4
20181217100256 5 205 1.6 9.7 0.00 0.71 0.33 98 1019.4
20181217095255 5 200 1.6 11.3 0.00 0.71 0.33 98 1019.4
20181217094256 5 219 1.6 8.0 0.00 0.71 0.33 98 1019.3
20181217093258 5 214 0.0 12.9 0.00 0.71 0.33 98 1019.2
20181217092258 4 186 4.8 12.9 0.00 0.71 0.33 98 1019.1
20181217091257 4 213 4.8 16.1 0.00 0.71 0.33 98 1019.0
20181217090257 4 225 6.4 12.9 0.00 0.71 0.33 98 1018.7
20181217085257 4 189 4.8 11.3 0.00 0.71 0.33 98 1018.4
20181217084254 4 186 3.2 11.3 0.00 0.71 0.33 98 1018.3
20181217083255 3 206 3.2 17.7 0.00 0.71 0.33 98 1018.4
20181217082255 3 209 3.2 9.7 0.00 0.71 0.33 98 1018.3
20181217081255 3 199 0.0 1.6 0.00 0.71 0.33 98 1018.0
20181217080255 3 200 0.0 4.8 0.00 0.71 0.33 98 1017.8
20181217075255 3 177 0.0 1.6 0.00 0.71 0.33 98 1017.6
20181217074252 3 177 0.0 4.8 0.00 0.71 0.33 98 1017.3
20181217073253 3 190 0.0 4.8 0.00 0.71 0.33 98 1017.1
20181217072253 3 190 0.0 6.4 0.00 0.71 0.33 98 1017.0
20181217071252 3 184 0.0 6.4 0.03 0.71 0.33 98 1016.8
20181217070253 3 186 0.0 3.2 0.03 0.71 0.33 98 1016.6
20181217065253 3 173 0.0 1.6 0.03 0.71 0.33 98 1016.4
20181217064253 3 171 0.0 1.6 0.05 0.71 0.33 98 1016.1
20181217063253 3 171 0.0 3.2 0.05 0.71 0.33 98 1016.1
20181217062251 3 170 0.0 4.8 0.05 0.71 0.33 98 1015.9
20181217061249 3 188 0.0 4.8 0.03 0.71 0.33 98 1015.7
20181217060248 3 175 0.0 1.6 0.03 0.71 0.33 98 1015.7
20181217055247 3 175 0.0 1.6 0.03 0.71 0.33 98 1015.6
20181217054245 2 115 0.0 6.4 0.00 0.69 0.30 98 1015.4
20181217053245 2 150 0.0 3.2 0.03 0.69 0.30 98 1015.0
20181217052243 2 164 0.0 4.8 0.03 0.69 0.30 97 1014.9
20181217051241 2 103 0.0 6.4 0.05 0.69 0.30 98 1014.7
20181217050241 2 104 1.6 6.4 0.10 0.69 0.30 98 1014.6
20181217045240 2 107 0.0 3.2 0.13 0.69 0.30 97 1014.5
20181217044239 2 134 1.6 9.7 0.15 0.69 0.30 98 1014.5
20181217043238 2 123 3.2 9.7 0.13 0.66 0.28 98 1014.4
20181217042236 2 118 1.6 6.4 0.13 0.66 0.28 97 1014.5
20181217041236 2 121 0.0 6.4 0.08 0.61 0.23 97 1014.4
20181217040237 2 175 1.6 11.3 0.05 0.58 0.20 97 1014.3
20181217035237 2 163 0.0 3.2 0.03 0.53 0.15 97 1014.2
20181217034236 2 134 0.0 1.6 0.03 0.53 0.15 97 1014.0
20181217033234 2 102 0.0 3.2 0.03 0.53 0.15 97 1014.0
20181217032234 2 151 0.0 3.2 0.05 0.53 0.15 97 1014.0
20181217031235 2 150 0.0 4.8 0.05 0.53 0.15 97 1014.0
20181217030234 2 180 1.6 9.7 0.05 0.51 0.15 97 1013.9
20181217025235 2 114 0.0 4.8 0.05 0.51 0.15 97 1013.9
20181217024234 2 121 0.0 4.8 0.05 0.51 0.15 97 1013.7
20181217023235 2 121 3.2 9.7 0.05 0.51 0.15 97 1013.6
20181217022232 2 86 3.2 6.4 0.05 0.51 0.13 97 1013.6
20181217021233 2 116 4.8 11.3 0.05 0.51 0.13 97 1013.7
20181217020232 2 104 3.2 9.7 0.03 0.48 0.10 97 1013.6
20181217015232 2 196 1.6 6.4 0.03 0.48 0.10 97 1013.7
20181217014232 2 200 1.6 6.4 0.03 0.46 0.08 97 1013.7
20181217013232 2 107 3.2 6.4 0.03 0.46 0.08 97 1013.6
20181217012232 2 114 3.2 9.7 0.03 0.46 0.08 97 1013.5
20181217011233 2 154 3.2 9.7 0.05 0.46 0.08 97 1013.5
20181217010232 2 112 4.8 9.7 0.05 0.46 0.08 97 1013.4
20181217005232 2 121 4.8 9.7 0.05 0.46 0.08 97 1013.3
20181217004232 2 118 3.2 12.9 0.03 0.43 0.05 97 1013.3
20181217003232 2 106 3.2 9.7 0.05 0.43 0.05 97 1013.4
20181217002232 2 109 3.2 9.7 0.05 0.43 0.05 97 1013.4
20181217001232 2 103 3.2 11.3 0.03 0.43 0.05 97 1013.4
20181217000232 2 139 3.2 9.7 0.05 0.43 0.05 97 1013.5
20181216235232 2 108 1.6 6.4 0.05 0.43 0.05 97 1013.3
20181216234232 2 101 1.6 11.3 0.05 0.43 0.05 97 1013.1
20181216233232 2 74 0.0 6.4 0.03 0.41 0.03 97 1013.1
20181216232231 2 153 1.6 6.4 0.03 0.41 0.03 97 1013.1
20181216231231 2 118 0.0 1.6 0.03 0.41 0.03 97 1013.1
20181216230231 2 118 0.0 0.0 0.03 0.38 0.00 97 1013.2
20181216225232 2 118 0.0 4.8 0.03 0.38 0.38 97 1013.1
20181216224231 2 118 0.0 3.2 0.03 0.38 0.38 97 1013.1
20181216223231 2 123 0.0 1.6 0.05 0.38 0.38 97 1013.2
20181216222230 2 123 0.0 1.6 0.05 0.38 0.38 97 1013.1
20181216221230 2 123 0.0 0.0 0.05 0.38 0.38 97 1012.9
20181216220230 2 123 0.0 0.0 0.05 0.36 0.36 97 1012.8
20181216215229 2 123 0.0 0.0 0.05 0.36 0.36 97 1012.9
20181216214228 2 123 0.0 0.0 0.05 0.36 0.36 97 1012.8
20181216213228 2 123 1.6 4.8 0.05 0.33 0.33 97 1012.7
20181216212225 2 85 1.6 4.8 0.05 0.33 0.33 97 1012.7
20181216211224 2 128 0.0 4.8 0.05 0.33 0.33 97 1012.7
20181216210223 2 124 0.0 4.8 0.03 0.33 0.33 97 1012.7
20181216205221 2 131 0.0 4.8 0.03 0.33 0.33 97 1012.7
20181216204221 2 148 0.0 0.0 0.05 0.33 0.33 97 1012.7
20181216203222 2 150 0.0 0.0 0.03 0.30 0.30 97 1012.7
20181216202222 2 150 0.0 0.0 0.03 0.30 0.30 97 1012.5
20181216201222 2 150 0.0 0.0 0.05 0.30 0.30 97 1012.4
20181216200219 2 150 0.0 0.0 0.05 0.30 0.30 97 1012.5
20181216195217 2 150 0.0 0.0 0.05 0.30 0.30 97 1012.5
20181216194217 2 150 0.0 1.6 0.03 0.28 0.28 97 1012.4
20181216193217 2 150 0.0 1.6 0.05 0.28 0.28 97 1012.4
20181216192217 2 150 0.0 0.0 0.05 0.28 0.28 97 1012.3
20181216191217 2 150 0.0 0.0 0.05 0.25 0.25 97 1012.3
20181216190215 2 150 0.0 3.2 0.05 0.25 0.25 97 1012.3
20181216185215 2 111 0.0 1.6 0.05 0.25 0.25 97 1012.3
20181216184216 2 103 0.0 3.2 0.03 0.23 0.23 97 1012.2
20181216183215 2 157 0.0 3.2 0.03 0.23 0.23 97 1012.1
20181216182213 1 163 0.0 3.2 0.05 0.23 0.23 97 1012.2
20181216181213 1 153 0.0 1.6 0.03 0.23 0.23 97 1012.1
20181216180213 1 153 0.0 0.0 0.05 0.23 0.23 97 1011.9
20181216175214 1 153 0.0 0.0 0.05 0.23 0.23 97 1011.9
20181216174213 1 153 0.0 1.6 0.05 0.23 0.23 97 1011.8
20181216173211 2 153 0.0 1.6 0.05 0.23 0.23 97 1011.8
20181216172210 2 153 0.0 0.0 0.05 0.20 0.20 97 1011.6
20181216171211 2 153 0.0 0.0 0.05 0.20 0.20 97 1011.6
20181216170211 2 153 0.0 0.0 0.05 0.18 0.18 97 1011.5
20181216165211 2 153 0.0 0.0 0.05 0.18 0.18 97 1011.5
20181216164211 1 153 0.0 0.0 0.05 0.18 0.18 97 1011.4
20181216163209 1 153 0.0 0.0 0.05 0.18 0.18 97 1011.4
20181216162209 1 153 0.0 0.0 0.05 0.15 0.15 97 1011.4
20181216161206 2 153 0.0 0.0 0.05 0.15 0.15 97 1011.3
20181216160207 2 153 0.0 0.0 0.05 0.15 0.15 97 1011.4
20181216155207 2 153 0.0 0.0 0.05 0.15 0.15 97 1011.3
20181216154207 2 153 0.0 0.0 0.05 0.15 0.15 97 1011.2
20181216153207 2 153 0.0 0.0 0.05 0.15 0.15 97 1011.3
20181216152208 2 153 0.0 0.0 0.05 0.13 0.13 97 1011.2
20181216151207 2 153 0.0 0.0 0.05 0.13 0.13 97 1010.9
20181216150205 2 153 0.0 0.0 0.05 0.10 0.10 97 1010.9
20181216145205 2 140 0.0 0.0 0.05 0.10 0.10 97 1010.8
20181216144205 2 140 0.0 0.0 0.08 0.10 0.10 96 1010.9
20181216143205 2 140 0.0 0.0 0.08 0.08 0.08 96 1011.0
20181216142204 2 232 0.0 0.0 0.05 0.05 0.05 97 1011.0
20181216141205 2 232 0.0 0.0 0.05 0.05 0.05 96 1010.8
20181216140205 2 232 0.0 0.0 0.05 0.05 0.05 96 1010.9
20181216135203 2 232 0.0 0.0 0.05 0.05 0.05 96 1010.8
20181216134203 2 232 0.0 0.0 0.03 0.03 0.03 96 1010.7
20181216133203 2 232 0.0 4.8 0.00 0.00 0.00 97 1010.8
20181216132204 2 232 1.6 4.8 0.00 0.00 0.00 97 1010.8
20181216131204 2 217 1.6 6.4 0.00 0.00 0.00 96 1010.8
20181216130204 2 218 1.6 8.0 0.00 0.00 0.00 96 1010.7
20181216125203 2 209 0.0 4.8 0.00 0.00 0.00 96 1010.8